Location: Asheville, NC
(35.6000°N, 82.5500°W)
Time: 01:19:32
(UTC-04:00)

XW-2C - Pass Details

Date: 05 January 2018
Orbit: 511 x 530 km, 97.5° (Epoch: 25 April)

Event Time Altitude Azimuth Distance (km) Brightness Sun altitude
Rises 06:21:15 0° 15° (NNE) 2,657 ? -15.7°
Reaches altitude 10° 06:23:23 10° 19° (NNE) 1,761 ? -15.3°
Maximum altitude 06:27:08 60° 100° (E) 598 ? -14.6°
Drops below altitude 10° 06:30:51 10° 181° (S) 1,736 ? -13.8°
Sets 06:32:56 0° 185° (S) 2,615 ? -13.4°
